Weather History for Prague, Czech Republic

Change the Weather History Date:

Wednesday, December 7, 2011

  Actual Average Record
Temperature  
Mean Temperature 36 °F -  
Max Temperature 40 °F 35 °F 53 °F (2007)
Min Temperature 32 °F 25 °F 15 °F (2012)
Degree Days  
Heating Degree Days 29    
Moisture  
Dew Point 32 °F    
Average Humidity 85    
Maximum Humidity 93    
Minimum Humidity 74    
Precipitation  
Precipitation 0.08 in 0.03 in - ()
Sea Level Pressure  
Sea Level Pressure 29.65 in    
Wind  
Wind Speed 16 mph ()    
Max Wind Speed 24 mph    
Max Gust Speed -    
Visibility 6.7 miles    
Events Rain , Snow    
Averages and records for this station are not official NWS values.
T = Trace of Precipitation, MM = Missing Value Source: Averaged Metar Reports

Daily Weather History Graph

Daily Weather History Graph

Search for Another Location

Airport:

Trip Planner

Search our weather history database for the weather conditions in past years. The results will help you decide how hot, cold, wet, or windy it might be!

Date:

Astronomy

Dec. 07, 2011 Rise Set
Actual Time 7:47 AM CET 4:01 PM CET
Civil Twilight 7:09 AM CET 4:39 PM CET
Nautical Twilight 6:27 AM CET 5:20 PM CET
Astronomical Twilight 5:48 AM CET 5:59 PM CET
Moon 1:59 PM CET (12/7) 4:36 AM CET (12/7)
Length of Visible Light 9h 30m
Length of Day
8h 14m
Waxing Gibbous, 91% of the Moon is Illuminated
Dec 7
Waxing Gibbous
Dec 10
Full
Dec 18
Last Quarter
Dec 24
New
Jan 1
First Quarter

Hourly Weather History & Observations

Time (CET) Temp. Windchill Dew Point Humidity Pressure Visibility Wind Dir Wind Speed Gust Speed Precip Events Conditions
12:00 AM 35.6 °F 23.7 °F 30.2 °F 81% 29.77 in - SW 24.2 mph - N/A   Clear
12:30 AM 35.6 °F 24.5 °F 30.2 °F 81% 29.77 in - WSW 20.7 mph - N/A   Clear
1:00 AM 35 °F - 30 °F 74% 29.84 in 19 mi WSW 17.9 mph - -   Partly Cloudy
1:00 AM 35.6 °F 24.0 °F 30.2 °F 81% 29.77 in - SW 23.0 mph - N/A   Clear
1:30 AM 35.6 °F 25.9 °F 30.2 °F 81% 29.80 in - SW 16.1 mph - N/A   Clear
2:00 AM 33.8 °F 23.2 °F 28.4 °F 81% 29.80 in - SW 17.3 mph - N/A   Clear
2:30 AM 33.8 °F 24.3 °F 30.2 °F 87% 29.80 in - SW 13.8 mph - N/A   Clear
3:00 AM 33.8 °F 23.5 °F 30.2 °F 87% 29.80 in - SW 16.1 mph - N/A   Clear
3:30 AM 33.8 °F 23.5 °F 30.2 °F 87% 29.77 in 6.2 mi SW 16.1 mph - N/A   Partly Cloudy
4:00 AM 33.8 °F 23.2 °F 30.2 °F 87% 29.77 in 6.2 mi SW 17.3 mph - N/A   Partly Cloudy
4:30 AM 33.8 °F 23.2 °F 30.2 °F 87% 29.77 in - SW 17.3 mph - N/A   Clear
5:00 AM 35.6 °F 25.5 °F 30.2 °F 81% 29.77 in - SW 17.3 mph - N/A   Clear
5:30 AM 33.8 °F 23.9 °F 30.2 °F 87% 29.77 in 6.2 mi SW 15.0 mph - N/A   Partly Cloudy
6:00 AM 33.8 °F 25.3 °F 28.4 °F 81% 29.77 in - SSW 11.5 mph - N/A   Clear
6:30 AM 33.8 °F 25.8 °F 30.2 °F 87% 29.74 in 6.2 mi South 10.4 mph - N/A   Partly Cloudy
7:00 AM 35 °F - 31 °F 78% 29.81 in 19 mi SSW 11.2 mph - -   Scattered Clouds
7:00 AM 33.8 °F 25.3 °F 30.2 °F 87% 29.74 in 6.2 mi South 11.5 mph - N/A   Partly Cloudy
7:17 AM 35.6 °F 27.1 °F 30.2 °F 81% 29.74 in 6.2 mi SSW 12.7 mph - N/A Snow Light Snow
7:30 AM 35.6 °F 25.9 °F 30.2 °F 81% 29.74 in 2.8 mi SSW 16.1 mph - N/A Snow Light Snow
7:31 AM 33.8 °F 22.2 °F 30.2 °F 87% 29.74 in 1.9 mi SSW 20.7 mph - N/A Snow Light Snow
7:47 AM 33.8 °F 24.8 °F 32.0 °F 93% 29.74 in 1.2 mi SSW 12.7 mph - N/A Snow Snow
8:00 AM 33.8 °F 27.0 °F 32.0 °F 93% 29.74 in 4.3 mi South 8.1 mph - N/A Snow Light Snow
8:30 AM 33.8 °F 26.4 °F 32.0 °F 93% 29.71 in 6.2 mi South 9.2 mph - N/A   Partly Cloudy
9:00 AM 33.8 °F 26.4 °F 32.0 °F 93% 29.71 in 6.2 mi South 9.2 mph - N/A Snow Light Snow
9:16 AM 33.8 °F 25.3 °F 32.0 °F 93% 29.71 in 6.2 mi South 11.5 mph - N/A   Mostly Cloudy
9:30 AM 33.8 °F 24.8 °F 32.0 °F 93% 29.71 in 6.2 mi South 12.7 mph - N/A   Mostly Cloudy
10:00 AM 35.6 °F 25.9 °F 32.0 °F 87% 29.68 in 6.2 mi South 16.1 mph - N/A   Mostly Cloudy
10:30 AM 37.4 °F 28.2 °F 33.8 °F 87% 29.68 in 6.2 mi SSW 16.1 mph - N/A   Mostly Cloudy
11:00 AM 37.4 °F 29.3 °F 33.8 °F 87% 29.65 in 6.2 mi SSW 12.7 mph - N/A   Mostly Cloudy
11:30 AM 37.4 °F 28.9 °F 33.8 °F 87% 29.62 in 6.2 mi South 13.8 mph - N/A   Mostly Cloudy
12:00 PM 39.2 °F 30.5 °F 33.8 °F 81% 29.62 in 6.2 mi SSW 16.1 mph - N/A   Mostly Cloudy
12:30 PM 39.2 °F 29.8 °F 33.8 °F 81% 29.59 in 6.2 mi SSW 18.4 mph - N/A Rain Light Rain
1:00 PM 39 °F - 35 °F 80% 29.62 in 19 mi SW 17.9 mph - - Rain Light Rain
1:00 PM 39.2 °F 30.8 °F 35.6 °F 87% 29.56 in 6.2 mi SSW 15.0 mph - N/A Rain Light Rain
1:30 PM 39.2 °F 31.2 °F 35.6 °F 87% 29.56 in 6.2 mi SSW 13.8 mph - N/A   Mostly Cloudy
1:36 PM 41.0 °F 33.1 °F 35.6 °F 81% 29.53 in 6.2 mi SSW 15.0 mph - N/A Rain Light Rain
2:00 PM 39.2 °F 29.8 °F 35.6 °F 87% 29.53 in 6.2 mi SSW 18.4 mph - N/A Rain Light Rain
2:30 PM 37.4 °F 27.2 °F 35.6 °F 93% 29.50 in 5.6 mi SSW 19.6 mph - N/A Rain Light Rain
3:00 PM 37.4 °F 28.5 °F 35.6 °F 93% 29.47 in 6.2 mi SSW 15.0 mph - N/A Rain Light Rain
3:16 PM 37.4 °F 28.5 °F 35.6 °F 93% 29.47 in 6.2 mi South 15.0 mph - N/A   Mostly Cloudy
3:30 PM 37.4 °F 28.9 °F 35.6 °F 93% 29.47 in 6.2 mi South 13.8 mph - N/A Rain Light Rain
3:52 PM 37.4 °F 26.6 °F 35.6 °F 93% 29.47 in 6.2 mi SSW 21.9 mph - N/A Rain Light Rain
4:00 PM 37.4 °F 26.6 °F 35.6 °F 93% 29.47 in 6.2 mi SSW 21.9 mph - N/A Rain Light Rain
4:30 PM 37.4 °F 27.2 °F 35.6 °F 93% 29.47 in 6.2 mi SW 19.6 mph - N/A Rain Light Rain
4:51 PM 37.4 °F 27.5 °F 33.8 °F 87% 29.47 in 6.2 mi WSW 18.4 mph - N/A   Partly Cloudy
5:00 PM 37.4 °F 27.8 °F 33.8 °F 87% 29.47 in 6.2 mi SW 17.3 mph - N/A   Partly Cloudy
5:30 PM 37.4 °F 26.9 °F 33.8 °F 87% 29.47 in 6.2 mi WSW 20.7 mph - N/A   Scattered Clouds
6:00 PM 37.4 °F 26.9 °F 33.8 °F 87% 29.50 in 6.2 mi WSW 20.7 mph - N/A   Scattered Clouds
6:30 PM 37.4 °F 27.5 °F 33.8 °F 87% 29.53 in 6.2 mi WSW 18.4 mph - N/A   Partly Cloudy
7:00 PM 37 °F - 33 °F 79% 29.60 in 31 mi WSW 17.9 mph - -   Partly Cloudy
7:00 PM 37.4 °F 27.2 °F 33.8 °F 87% 29.53 in 6.2 mi WSW 19.6 mph - N/A   Scattered Clouds
7:30 PM 37.4 °F 27.5 °F 32.0 °F 81% 29.56 in 6.2 mi WSW 18.4 mph - N/A   Partly Cloudy
8:00 PM 37.4 °F 26.6 °F 32.0 °F 81% 29.59 in 6.2 mi West 21.9 mph - N/A   Scattered Clouds
8:30 PM 37.4 °F 26.9 °F 32.0 °F 81% 29.59 in 6.2 mi WSW 20.7 mph - N/A   Scattered Clouds
9:00 PM 35.6 °F 24.2 °F 32.0 °F 87% 29.59 in 6.2 mi WSW 21.9 mph - N/A   Partly Cloudy
9:30 PM 37.4 °F 26.1 °F 30.2 °F 75% 29.62 in 6.2 mi WSW 24.2 mph - N/A   Partly Cloudy
10:00 PM 35.6 °F 23.7 °F 30.2 °F 81% 29.62 in - WSW 24.2 mph - N/A   Clear
10:30 PM 37.4 °F 26.1 °F 30.2 °F 75% 29.62 in - WSW 24.2 mph - N/A   Clear
11:00 PM 37.4 °F 26.1 °F 30.2 °F 75% 29.65 in - WSW 24.2 mph - N/A   Clear
11:30 PM 35.6 °F 24.2 °F 28.4 °F 75% 29.65 in - WSW 21.9 mph - N/A   Clear